Location: Unspecified
(0.0000°N, 0.0000°E)
Time: 22:12:25
(UTC+00:00)

deb r/b Ablestar - Visible Passes

Search period start: 29 April 2025 00:00
Search period end: 09 May 2025 00:00
Orbit: 843 x 949 km, 66.9° (Epoch: 28 April)

Date Brightness Start Highest point End Pass type
(mag) Time Alt. Az. Time Alt. Az. Time Alt. Az.
29 Apr ? 03:47:25 34° N 03:47:25 34° N 03:50:45 10° N visible
30 Apr ? 03:49:36 22° NNW 03:49:36 22° NNW 03:51:49 10° N visible
01 May ? 03:51:39 14° NNW 03:51:39 14° NNW 03:52:41 10° NNW visible
